Location: Mapua
(41.2500°S, 173.1000°E)
Time: 14:02:52
(UTC+12:00)

Envisat - Visible Passes

Search period start: 01 July 2022 00:00
Search period end: 11 July 2022 00:00
Orbit: 764 x 765 km, 98.2° (Epoch: 30 June)

Date Brightness Start Highest point End Pass type
(mag) Time Alt. Az. Time Alt. Az. Time Alt. Az.
01 Jul 5.7 18:39:14 10° SSW 18:41:46 14° WSW 18:44:18 10° W visible
02 Jul 4.9 18:00:54 10° S 18:05:16 28° WSW 18:09:35 10° NW visible
04 Jul 5.6 18:26:50 10° SSW 18:30:08 17° WSW 18:33:25 10° WNW visible
05 Jul 4.6 17:48:54 10° S 17:53:34 36° WSW 17:58:11 10° NW visible
06 Jul 6.0 18:54:17 10° SW 18:54:54 10° WSW 18:55:31 10° WSW visible
07 Jul 5.3 18:14:38 10° SSW 18:18:29 22° WSW 18:22:19 10° WNW visible
08 Jul 4.2 17:36:58 10° S 17:41:52 45° WSW 17:46:41 10° NW visible
09 Jul 5.7 18:40:59 10° SSW 18:43:18 13° WSW 18:45:36 10° W visible
10 Jul 5.0 18:02:32 10° S 18:06:49 27° WSW 18:11:03 10° WNW visible
